SCP
0 0 0 0 0 0 0 0 0 0 0 0 0 0 0 0 0 0 0 0 0 0 0 0 0 0 0 0 0 0 0 0 0 0 0 0 0 0 0 0 0 0 0
0 0 0 0 0 0 0 0 0 0 0 0 0 0 0 0 0 0 0 0 0 0 0 0 0 0 0 0 0 0 0 0 0 0 0 0 0 0 0 0 0 0 0
0 0 0 0 0 0 0 0 0 0 0 0 0 0 0 0 0 0 0 0 0 0 0 0 0 0 0 0 0 0 0 0 0 0 0 0 0 0 0 0 0 0 0
0 0 0 0 0 0 0 0 0 0 0 0 0 0 0 0 0 0 0 0 0 0 0 0 0 0 0 0 0 0 0 0 0 0 0 0 0 0 0 0 0 0 0
0 0 0 0 0 0 0 0 0 0 0 0 0 0 0 0 0 0 0 0 0 0 0 0 0 0 0 0 0 0 0 0 0 0 0 0 0 0 0 0 0 0 0
0 0 0 0 0 0 0 0 0 0 0 0 0 0 0 0 0 0 0 0 0 0 0 0 0 0 0 0 0 0 0 0 0 0 0 0 0 0 0 0 0 0 0
0 0 0 0 0 0 0 0 0 0 0 0 0 0 0 0 0 0 0 0 0 0 0 0 0 0 0 0 0 0 0 0 0 0 0 0 0 0 0 0 0 0 0
0 0 0 0 0 0 0 0 0 0 0 0 0 0 0 0 0 0 0 0 0 0 0 0 0 0 0 0 0 0 0 0 0 0 0 0 0 0 0 0 0 0 0
0 0 0 0 0 0 0 0 0 0 0 0 0 0 0 0 0 0 0 0 0 0 0 0 0 0 0 0 0 0 0 0 0 0 0 0 0 0 0 0 0 0 0
0 0 0 0 0 0 0 0 0 0 0 0 0 0 0 0 0 0 0 0 0 0 0 0 0 0 0 0 -0 -0 0 0 0 0 0 0 0 0 0 0 0 0 0
0 0 0 0 0 0 0 0 0 0 0 0 0 0 0 0 0 0 0 0 0 0 0 0 0 0 0 0 -0 -0 0 0 0 0 0 0 0 0 0 0 0 0 0
0 0 0 0 0 0 0 0 0 0 0 0 0 0 0 0 0 0 0 0 0 0 0 0 0 0 0 0 -0 -0 0 0 0 0 0 0 0 0 0 0 0 0 0
0 0 0 0 0 0 0 0 0 0 0 0 0 0 0 0 0 0 0 0 0 0 0 0 0 0 0 0 0 0 0 0 0 0 0 0 0 0 0 0 0 0 0
0 0 0 0 0 0 0 0 0 0 0 0 0 0 0 0 0 0 0 0 0 0 0 0 0 0 0 0 0 0 0 0 0 0 0 0 0 0 0 0 0 0 0
0 0 0 0 0 0 0 0 0 0 0 0 0 0 0 0 0 0 0 0 0 0 0 0 0 0 0 0 0 0 0 0 0 0 0 0 0 0 0 0 0 0 0
0 0 0 0 0 0 0 0 0 0 0 0 0 0 0 0 0 0 0 0 0 0 0 0 0 0 0 0 0 0 0 0 0 0 0 0 0 0 0 0 0 0 0
0 0 0 0 0 0 0 0 0 0 0 0 -0 -0 0 0 0 0 0 0 0 0 0 0 0 0 0 0 0 0 0 0 0 0 0 0 0 0 0 0 0 0 0
0 0 0 0 0 0 0 0 0 0 0 0 -0 -0 0 0 0 0 0 0 0 0 0 0 0 0 0 0 0 0 0 0 0 0 0 0 0 0 0 0 0 0 0
0 0 0 0 0 0 0 0 0 -0 -0 -0 -0 -0 0 0 0 0 0 0 0 0 0 0 0 0 0 0 0 0 0 0 0 0 0 0 0 0 0 0 0 0 0
0 0 0 0 0 -0 -0 0 0 0 -0 -0 -0 0 0 0 0 0 0 0 0 0 0 0 0 0 0 0 0 0 0 0 0 0 0 0 0 0 0 0 0 0 0
0 0 0 0 0 0 0 0 0 0 0 0 0 0 0 0 0 0 0 0 0 0 0 0 0 0 0 0 0 0 0 0 0 0 0 0 0 0 0 0 0 0 0
0 0 0 0 0 0 0 0 0 0 0 0 0 0 0 0 0 0 0 0 0 0 0 0 0 0 0 0 0 0 0 0 0 0 0 0 0 0 0 0 0 0 0
-0 -0 -0 -0 -0 0 0 0 0 0 0 0 0 0 0 0 0 0 0 0 0 0 0 0 0 0 0 0 0 0 0 0 0 0 0 0 0 0 0 0 0 0 0
-0 -0 -0 -0 -0 -0 0 0 0 0 0 0 0 0 0 0 0 0 0 0 0 0 0 0 0 0 0 0 0 0 0 0 0 0 0 0 0 0 0 0 0 0 0
-0 -0 -0 -0 -0 -0 -0 -0 0 0 0 0 0 0 0 0 0 0 0 0 0 0 0 0 0 0 0 0 0 0 0 0 0 0 0 0 0 0 0 0 0 0 0
-0 -0 -0 -0 -0 -0 -0 -0 0 0 0 0 0 0 0 0 0 0 0 0 0 0 0 0 0 0 0 0 0 0 0 0 0 0 0 0 0 0 0 0 0 0 0
Wind_Speed
4 2 2 2 2 3 3 3 3 3 3 2 2 1 1 1 0 0 1 1 1 1 1 1 1 1 1 1 1 1 1 1 1 1 2 2 1 0 0 0 0 1 1
2 1 1 2 3 3 4 4 4 4 3 2 2 1 1 1 1 0 0 0 1 1 2 2 1 1 1 1 1 1 1 1 1 1 1 1 2 1 1 0 0 0 1
4 3 2 3 3 3 4 4 4 4 3 3 2 1 1 1 1 0 1 0 0 1 1 2 2 1 2 2 2 2 2 1 0 1 2 2 2 1 1 1 1 1 1
3 2 2 3 3 4 3 3 3 3 3 3 3 3 3 2 2 2 1 1 1 1 1 1 2 2 1 2 2 1 1 2 2 1 0 1 1 1 1 2 1 1 1
3 3 3 4 3 3 3 3 3 3 3 3 4 4 3 2 1 1 2 1 1 1 1 1 1 2 2 2 2 2 2 2 2 2 1 0 0 1 1 2 2 2 2
3 3 2 1 1 1 2 2 3 2 3 3 3 4 4 3 2 2 2 2 1 1 2 2 2 2 2 3 3 3 3 2 2 2 2 2 2 2 2 2 2 3 2
3 3 2 1 1 1 1 2 3 3 2 3 3 4 4 4 4 4 4 3 2 2 3 3 2 2 2 2 3 3 3 3 3 3 2 2 2 2 2 2 2 3 2
3 3 2 2 2 1 1 2 3 3 3 3 3 3 3 3 3 3 3 3 3 3 3 3 3 3 3 3 3 2 3 3 3 3 3 3 3 2 2 2 2 2 2
4 4 3 2 2 1 2 2 2 2 3 3 3 3 3 3 3 3 2 2 3 3 3 3 3 3 4 3 3 3 3 3 3 4 4 3 3 3 3 2 3 3 3
4 4 3 2 2 2 2 1 2 3 3 3 3 2 3 3 3 2 3 3 3 3 3 4 4 4 3 4 4 3 3 3 3 3 4 4 3 3 3 3 3 3 4
5 4 3 3 2 2 1 1 1 1 1 2 2 2 2 2 2 3 4 3 3 3 4 4 4 4 4 4 4 4 4 5 4 4 4 5 4 3 3 3 3 4 4
5 4 4 3 3 2 2 2 1 1 1 1 1 2 2 2 2 3 3 3 3 3 4 4 4 5 5 5 5 5 5 5 5 5 5 5 4 4 4 3 4 4 4
6 5 4 4 4 3 2 2 2 2 1 1 1 1 1 2 3 3 3 3 3 3 3 4 5 5 5 5 5 5 5 5 5 5 6 6 5 6 4 4 5 4 4
5 5 5 4 4 3 2 2 2 2 2 1 1 1 2 2 3 3 3 3 3 3 4 4 4 5 5 5 5 5 5 5 5 5 5 5 6 7 6 5 5 5 4
6 6 5 5 4 4 3 2 2 2 1 1 1 2 2 2 2 2 3 3 3 3 3 3 4 4 4 5 5 5 5 5 4 4 5 5 7 8 7 5 5 5 5
7 6 6 6 5 5 4 3 2 2 1 1 2 2 2 2 2 2 2 2 2 3 3 3 3 4 4 7 8 6 5 5 5 5 4 5 6 8 9 10 9 8 7
7 7 6 6 5 5 4 3 3 2 1 1 2 2 2 2 2 2 2 2 2 2 2 3 3 4 5 7 8 8 5 4 4 5 4 4 5 6 5 7 9 9 10
7 7 6 6 5 4 4 3 2 2 1 2 2 2 2 2 3 2 2 2 2 2 2 2 2 3 4 7 7 7 4 3 4 5 5 5 5 6 6 5 5 5 6
7 7 6 6 5 4 3 2 2 2 2 2 2 2 2 2 2 2 2 2 2 2 1 2 2 2 4 6 7 6 2 3 4 4 5 5 5 8 9 6 5 5 6
6 6 6 5 5 4 2 1 2 2 3 3 3 3 2 2 2 3 2 2 1 1 1 2 2 2 4 6 7 6 2 2 3 3 4 7 7 8 8 5 5 6 5
6 5 5 4 4 4 2 2 2 3 4 3 3 2 2 2 2 2 1 1 1 1 1 2 2 3 4 6 7 6 2 2 2 3 3 3 8 9 9 7 5 7 6
6 5 5 5 5 4 2 2 3 4 3 2 3 3 3 2 2 1 2 1 1 1 1 1 2 2 3 5 6 6 5 4 2 3 2 3 7 8 8 6 7 9 7
6 5 4 5 5 4 2 2 4 3 3 2 3 3 3 2 2 1 2 1 1 1 1 1 2 2 2 4 7 7 6 6 3 2 4 5 6 6 5 6 8 6 3
5 4 4 5 5 4 3 3 3 3 2 2 3 3 2 2 2 2 1 1 1 1 2 2 2 2 2 3 3 3 3 4 3 2 4 6 6 5 4 5 4 3 3
5 4 4 5 6 5 4 4 3 2 2 2 2 2 2 2 2 2 2 2 2 3 2 2 2 2 3 4 6 4 3 2 2 2 1 1 2 2 2 2 2 2 2
5 5 5 5 6 5 5 4 3 1 1 2 2 2 2 2 2 2 2 4 4 6 6 5 4 4 5 7 7 6 6 6 4 2 1 1 2 2 2 2 2 2 2
Wind_Direction
259 230 196 179 162 165 168 176 177 164 147 153 158 158 171 152 104 116 108 115 120 131 135 126 120 115 122 132 118 98 89 43 28 71 31 2 9 44 358 16 67 26 11
296 272 199 173 180 186 188 187 190 183 179 182 176 173 163 172 176 141 100 112 151 154 159 146 156 154 132 123 130 109 108 63 43 108 108 349 336 325 301 294 170 355 351
256 253 222 204 200 202 200 201 202 194 187 168 134 120 96 92 123 177 203 244 214 174 159 172 170 166 161 171 176 170 150 174 242 113 138 153 224 289 299 260 243 266 272
261 253 234 219 218 219 208 201 196 191 183 172 167 167 177 197 209 203 211 227 208 192 177 180 181 178 183 193 202 195 197 173 191 183 87 163 159 180 287 290 265 265 260
259 252 243 226 224 214 199 194 188 186 179 183 187 186 194 195 180 174 185 204 214 206 196 194 191 193 199 200 203 203 206 204 192 175 172 188 344 201 201 263 290 297 270
282 274 271 231 222 189 181 173 181 193 187 186 191 195 195 184 171 198 199 211 222 219 212 208 204 207 208 205 206 203 206 207 201 194 183 180 183 194 202 233 269 275 272
293 289 292 266 242 215 195 180 185 204 202 195 200 204 200 194 194 207 211 209 217 228 223 217 213 220 222 215 204 205 209 205 203 207 209 212 215 198 205 222 256 275 281
321 306 291 268 244 224 217 207 204 214 205 205 212 208 203 201 210 212 222 221 223 227 222 215 217 223 223 220 207 211 217 209 210 220 216 214 220 214 207 203 211 271 276
331 324 318 320 302 265 237 225 217 223 219 215 210 205 203 207 218 218 219 232 231 230 219 219 222 222 220 218 209 215 216 214 216 222 218 221 224 220 222 212 203 208 251
336 337 335 327 320 305 296 261 224 223 220 213 213 215 209 215 221 220 227 236 239 227 221 225 223 223 224 219 214 216 219 219 226 224 218 225 226 220 221 220 219 218 224
325 325 326 329 329 339 339 328 290 263 245 229 224 211 213 218 219 225 231 232 243 236 225 225 222 222 223 219 218 223 220 220 228 224 220 228 223 221 221 221 223 224 221
325 326 328 340 348 345 345 341 336 298 275 261 239 229 224 225 231 240 243 236 239 243 236 227 224 224 223 218 218 226 228 224 227 223 221 229 225 227 227 222 228 232 227
334 335 339 340 334 330 329 330 323 307 305 292 274 270 248 236 240 246 254 250 242 244 243 230 225 227 225 222 224 225 228 231 231 225 224 227 221 230 230 229 231 236 239
330 332 331 327 324 322 319 319 319 322 323 326 296 273 266 256 253 253 251 249 244 242 242 239 235 232 230 229 228 227 230 233 233 233 231 230 225 230 227 230 232 234 240
336 333 329 324 323 325 322 321 319 324 327 332 306 284 287 286 278 267 255 251 249 248 248 245 245 242 235 229 228 228 228 227 231 236 237 236 236 237 236 236 230 229 235
327 326 325 326 321 316 315 316 317 316 332 323 307 314 316 307 294 285 279 268 263 260 253 250 246 248 246 242 240 236 229 226 227 236 241 242 243 246 250 252 249 240 236
323 323 319 314 311 308 305 297 295 313 322 311 318 325 321 311 301 297 297 282 273 270 264 255 246 246 250 249 249 246 240 227 228 231 238 247 246 252 245 253 256 254 253
322 320 318 317 315 309 303 298 308 313 310 319 323 322 320 312 310 308 299 294 291 275 271 269 257 252 256 258 257 254 247 236 234 232 232 237 243 242 243 243 250 253 257
306 305 306 308 311 312 306 309 319 323 325 319 314 309 305 305 310 306 300 303 308 308 305 291 281 269 272 267 266 262 239 240 243 240 236 235 237 245 249 245 249 261 265
311 311 313 317 318 317 315 314 310 311 300 298 298 299 299 296 295 293 301 313 308 304 306 304 301 287 282 276 268 264 241 241 251 253 251 250 250 251 252 239 238 253 259
314 315 315 315 311 314 316 305 305 294 294 303 308 310 305 295 286 288 297 299 305 325 319 306 302 292 288 290 279 271 257 239 250 256 257 260 262 260 258 255 242 253 262
320 322 321 317 316 316 309 301 299 297 309 312 313 315 311 304 305 310 311 310 305 324 313 309 308 300 295 297 291 286 278 268 250 254 256 256 269 273 272 268 264 266 267
315 319 316 314 318 317 302 289 300 312 318 323 318 315 317 319 313 299 298 303 289 275 291 301 302 305 303 300 303 301 293 282 274 256 262 270 272 276 275 272 274 271 253
315 317 318 317 318 320 317 293 300 312 314 313 315 316 319 320 321 308 293 289 282 276 274 280 290 296 300 300 298 295 294 292 281 278 272 271 270 271 276 278 276 262 246
320 319 315 311 312 319 317 314 312 314 313 309 311 314 311 306 310 313 297 288 269 263 269 265 267 280 288 297 305 313 301 301 288 307 306 291 284 274 273 274 268 264 261
322 323 322 320 319 321 317 315 310 297 283 296 304 298 296 297 301 306 314 301 296 298 300 299 294 288 299 310 312 314 316 314 309 322 335 300 290 278 278 274 272 268 264